• In Austria
  • List of Countries
  • For 7 days
  • Water Temperature
  • Satellite Maps
  • Weather Map
  • News
  • Weather Widgets
  • user-avatar
    Login

    Hourly Weather Dori

    Today, 22 July, Sunday

    Time Temperature Precipitation Wind Pressure Humidity
    00:00 +36°C° 0 mm 4 mps 735 mmHg 38%
    01:00 +35°C° 0 mm 5 mps 734 mmHg 42%
    02:00 +34°C° 0 mm 5 mps 734 mmHg 47%
    03:00 +33°C° 0 mm 6 mps 734 mmHg 51%
    04:00 +33°C° 0 mm 5 mps 734 mmHg 54%
    05:00 +32°C° 0 mm 5 mps 734 mmHg 56%
    06:00 +32°C° 0 mm 5 mps 735 mmHg 59%
    07:00 +33°C° 0 mm 5 mps 735 mmHg 56%
    08:00 +33°C° 0 mm 5 mps 735 mmHg 54%
    09:00 +34°C° 0 mm 5 mps 735 mmHg 51%
    10:00 +35°C° 0 mm 5 mps 735 mmHg 45%
    11:00 +37°C° 0 mm 4 mps 735 mmHg 40%
    12:00 +38°C° 0 mm 4 mps 735 mmHg 35%
    13:00 +38°C° 0 mm 4 mps 734 mmHg 33%
    14:00 +40°C° 0 mm 4 mps 734 mmHg 31%
    15:00 +40°C° 0 mm 4 mps 733 mmHg 29%
    16:00 +40°C° 0 mm 4 mps 733 mmHg 29%
    17:00 +40°C° 0 mm 4 mps 733 mmHg 29%
    18:00 +40°C° 0 mm 4 mps 733 mmHg 28%
    19:00 +39°C° 0 mm 5 mps 733 mmHg 30%
    20:00 +37°C° 0 mm 5 mps 734 mmHg 32%
    21:00 +37°C° 0 mm 5 mps 734 mmHg 33%
    22:00 +36°C° 0.2 mm 5 mps 735 mmHg 36%
    23:00 +36°C° 0.2 mm 5 mps 735 mmHg 38%

    Tomorrow, 23 July, Monday

    Time Temperature Precipitation Wind Pressure Humidity
    00:00 +35°C° 0.2 mm 4 mps 735 mmHg 40%
    01:00 +35°C° 0 mm 4 mps 735 mmHg 42%
    02:00 +34°C° 0 mm 4 mps 734 mmHg 44%
    03:00 +34°C° 0 mm 4 mps 734 mmHg 46%
    04:00 +34°C° 0 mm 4 mps 734 mmHg 48%
    05:00 +33°C° 0 mm 4 mps 734 mmHg 50%
    06:00 +33°C° 0 mm 4 mps 734 mmHg 51%
    07:00 +34°C° 0 mm 5 mps 735 mmHg 49%
    08:00 +35°C° 0 mm 5 mps 735 mmHg 46%
    09:00 +36°C° 0 mm 6 mps 735 mmHg 43%
    10:00 +37°C° 0 mm 5 mps 735 mmHg 40%
    11:00 +38°C° 0 mm 4 mps 735 mmHg 36%
    12:00 +40°C° 0 mm 4 mps 735 mmHg 32%
    13:00 +40°C° 0 mm 3 mps 734 mmHg 30%
    14:00 +41°C° 0 mm 1 mps 733 mmHg 28%
    15:00 +38°C° 0 mm 0 mps 733 mmHg 27%
    16:00 +41°C° 0 mm 1 mps 733 mmHg 27%
    17:00 +41°C° 0 mm 1 mps 733 mmHg 27%
    18:00 +40°C° 0 mm 1 mps 733 mmHg 28%
    19:00 +40°C° 0.1 mm 1 mps 733 mmHg 29%
    20:00 +40°C° 0.1 mm 2 mps 734 mmHg 30%
    21:00 +39°C° 0.1 mm 3 mps 734 mmHg 31%
    22:00 +39°C° 0.1 mm 3 mps 734 mmHg 33%
    23:00 +38°C° 0.1 mm 4 mps 734 mmHg 35%

    Day after tomorrow, 24 July, Tuesday

    Time Temperature Precipitation Wind Pressure Humidity
    00:00 +37°C° 0.1 mm 5 mps 734 mmHg 37%
    01:00 +37°C° 0 mm 5 mps 734 mmHg 38%
    02:00 +36°C° 0 mm 5 mps 733 mmHg 40%
    03:00 +36°C° 0 mm 5 mps 732 mmHg 41%
    04:00 +36°C° 0 mm 5 mps 732 mmHg 43%
    05:00 +35°C° 0 mm 6 mps 732 mmHg 44%
    06:00 +35°C° 0 mm 6 mps 732 mmHg 46%
    07:00 +35°C° 0 mm 7 mps 733 mmHg 45%
    08:00 +36°C° 0 mm 7 mps 733 mmHg 45%
    09:00 +38°C° 0 mm 8 mps 734 mmHg 44%
    10:00 +39°C° 0 mm 7 mps 734 mmHg 40%
    11:00 +40°C° 0 mm 7 mps 734 mmHg 37%
    12:00 +43°C° 0 mm 7 mps 734 mmHg 33%
    13:00 +42°C° 0 mm 6 mps 733 mmHg 31%
    14:00 +44°C° 0 mm 6 mps 733 mmHg 29%
    15:00 +44°C° 0 mm 6 mps 732 mmHg 28%
    16:00 +44°C° 0.1 mm 6 mps 732 mmHg 30%
    17:00 +42°C° 0.1 mm 6 mps 732 mmHg 31%
    18:00 +41°C° 0.1 mm 6 mps 732 mmHg 33%
    19:00 +40°C° 0.1 mm 6 mps 732 mmHg 35%
    20:00 +40°C° 0.1 mm 7 mps 733 mmHg 37%
    21:00 +39°C° 0.1 mm 7 mps 733 mmHg 39%
    22:00 +38°C° 0.7 mm 7 mps 733 mmHg 43%
    23:00 +37°C° 0.7 mm 8 mps 733 mmHg 46%

    25 July, Wednesday

    Time Temperature Precipitation Wind Pressure Humidity
    00:00 +35°C° 0.7 mm 8 mps 733 mmHg 50%
    01:00 +34°C° 4.3 mm 7 mps 733 mmHg 56%
    02:00 +33°C° 4.3 mm 7 mps 733 mmHg 62%
    03:00 +32°C° 4.3 mm 6 mps 733 mmHg 68%
    04:00 +30°C° 9.9 mm 7 mps 734 mmHg 70%
    05:00 +29°C° 9.9 mm 8 mps 734 mmHg 72%
    06:00 +29°C° 9.9 mm 9 mps 735 mmHg 74%
    07:00 +29°C° 2.7 mm 7 mps 735 mmHg 72%
    08:00 +29°C° 2.7 mm 6 mps 736 mmHg 70%
    09:00 +29°C° 2.7 mm 4 mps 736 mmHg 68%
    10:00 +29°C° 1.9 mm 5 mps 736 mmHg 67%
    11:00 +30°C° 1.9 mm 5 mps 736 mmHg 66%
    12:00 +30°C° 1.9 mm 6 mps 736 mmHg 65%
    13:00 +32°C° 0 mm 5 mps 735 mmHg 60%
    14:00 +32°C° 0 mm 5 mps 734 mmHg 55%
    15:00 +33°C° 0 mm 4 mps 733 mmHg 50%
    16:00 +33°C° 0 mm 4 mps 733 mmHg 50%
    17:00 +33°C° 0 mm 4 mps 733 mmHg 50%
    18:00 +33°C° 0 mm 4 mps 733 mmHg 50%
    19:00 +33°C° 0 mm 3 mps 734 mmHg 52%
    20:00 +32°C° 0 mm 2 mps 735 mmHg 54%
    21:00 +32°C° 0 mm 2 mps 735 mmHg 55%
    22:00 +31°C° 0.1 mm 2 mps 735 mmHg 57%
    23:00 +31°C° 0.1 mm 3 mps 735 mmHg 58%

    26 July, Thursday

    Time Temperature Precipitation Wind Pressure Humidity
    00:00 +32°C° 0.1 mm 4 mps 735 mmHg 59%
    01:00 +32°C° 0 mm 4 mps 735 mmHg 62%
    02:00 +30°C° 0 mm 5 mps 734 mmHg 65%
    03:00 +30°C° 0 mm 5 mps 734 mmHg 68%
    04:00 +30°C° 0 mm 5 mps 734 mmHg 69%
    05:00 +29°C° 0 mm 6 mps 734 mmHg 70%
    06:00 +29°C° 0 mm 6 mps 735 mmHg 72%
    07:00 +30°C° 0 mm 6 mps 735 mmHg 69%
    08:00 +32°C° 0 mm 6 mps 736 mmHg 65%
    09:00 +33°C° 0 mm 6 mps 736 mmHg 62%
    10:00 +34°C° 0 mm 6 mps 736 mmHg 56%
    11:00 +36°C° 0 mm 6 mps 735 mmHg 50%
    12:00 +38°C° 0 mm 6 mps 735 mmHg 45%
    13:00 +39°C° 0 mm 5 mps 734 mmHg 41%
    14:00 +40°C° 0 mm 5 mps 734 mmHg 38%
    15:00 +40°C° 0 mm 4 mps 733 mmHg 35%
    16:00 +40°C° 0 mm 4 mps 733 mmHg 35%
    17:00 +40°C° 0 mm 4 mps 733 mmHg 36%
    18:00 +39°C° 0 mm 3 mps 733 mmHg 36%
    19:00 +38°C° 0 mm 4 mps 733 mmHg 38%
    20:00 +38°C° 0 mm 4 mps 734 mmHg 39%
    21:00 +37°C° 0 mm 4 mps 734 mmHg 41%
    22:00 +37°C° 0 mm 4 mps 734 mmHg 44%
    23:00 +36°C° 0 mm 5 mps 734 mmHg 46%

    27 July, Friday

    Time Temperature Precipitation Wind Pressure Humidity
    00:00 +35°C° 0 mm 5 mps 734 mmHg 49%
    01:00 +35°C° 0 mm 6 mps 734 mmHg 51%
    02:00 +34°C° 0 mm 6 mps 734 mmHg 54%
    03:00 +33°C° 0 mm 7 mps 734 mmHg 56%
    04:00 +33°C° 0.1 mm 7 mps 734 mmHg 59%
    05:00 +32°C° 0.1 mm 7 mps 734 mmHg 61%
    06:00 +30°C° 0.1 mm 7 mps 734 mmHg 64%
    07:00 +32°C° 0.2 mm 8 mps 735 mmHg 61%
    08:00 +33°C° 0.2 mm 8 mps 735 mmHg 59%
    09:00 +34°C° 0.2 mm 8 mps 735 mmHg 56%
    10:00 +35°C° 0 mm 8 mps 735 mmHg 51%
    11:00 +37°C° 0 mm 8 mps 735 mmHg 47%
    12:00 +39°C° 0 mm 7 mps 734 mmHg 42%
    13:00 +40°C° 0 mm 7 mps 734 mmHg 39%
    14:00 +40°C° 0 mm 6 mps 733 mmHg 37%
    15:00 +41°C° 0 mm 5 mps 733 mmHg 34%
    16:00 +41°C° 0 mm 5 mps 733 mmHg 34%
    17:00 +41°C° 0 mm 4 mps 733 mmHg 34%
    18:00 +41°C° 0 mm 4 mps 733 mmHg 34%
    19:00 +40°C° 0 mm 4 mps 733 mmHg 35%
    20:00 +39°C° 0 mm 3 mps 733 mmHg 36%
    21:00 +38°C° 0 mm 3 mps 733 mmHg 37%
    22:00 +38°C° 0.1 mm 4 mps 733 mmHg 38%
    23:00 +37°C° 0.1 mm 5 mps 733 mmHg 39%
    Show more